Gewässerkundlicher Dienst Bayern

Aktuelle Messwerte Kaubenheim

Lufttemperatur vom 02.05.2026 bis zum 08.05.2026
Hinweis
Luftfeuchtegeber defekt
Lufttemperatur vom 02.05.2026 bis zum 08.05.2026
DatumLufttemperatur [°C]
08.05.2026 15:0017,0
08.05.2026 14:0016,6
08.05.2026 13:0016,1
08.05.2026 12:0014,8
08.05.2026 11:0013,5
08.05.2026 10:0012,0
08.05.2026 09:0010,7
08.05.2026 08:008,8
08.05.2026 07:007,8
08.05.2026 06:007,1
08.05.2026 05:006,4
08.05.2026 04:005,1
08.05.2026 03:005,6
08.05.2026 02:007,5
08.05.2026 01:007,6
08.05.2026 00:007,2
07.05.2026 23:007,5
07.05.2026 22:007,9
07.05.2026 21:009,7
07.05.2026 20:0010,7
07.05.2026 19:0011,3
07.05.2026 18:0011,3
07.05.2026 17:0011,7
07.05.2026 16:0011,3
07.05.2026 15:0011,8
07.05.2026 14:0010,6
07.05.2026 13:0010,5
07.05.2026 12:0010,4
07.05.2026 11:0010,4
07.05.2026 10:0010,4
07.05.2026 09:0010,2
07.05.2026 08:0010,2
07.05.2026 07:009,9
07.05.2026 06:009,8
07.05.2026 05:009,9
07.05.2026 04:009,7
07.05.2026 03:009,8
07.05.2026 02:0010,2
07.05.2026 01:0011,0
07.05.2026 00:0011,3
06.05.2026 23:0011,4
06.05.2026 22:0011,8
06.05.2026 21:0012,2
06.05.2026 20:0012,7
06.05.2026 19:0013,6
06.05.2026 18:0015,1
06.05.2026 17:0015,5
06.05.2026 16:0016,8
06.05.2026 15:0019,3
06.05.2026 14:0018,6
06.05.2026 13:0018,2
06.05.2026 12:0018,3
06.05.2026 11:0017,7
06.05.2026 10:0017,3
06.05.2026 09:0015,8
06.05.2026 08:0015,1
06.05.2026 07:0011,5
06.05.2026 06:007,7
06.05.2026 05:007,4
06.05.2026 04:007,7
06.05.2026 03:009,9
06.05.2026 02:0010,4
06.05.2026 01:0010,2
06.05.2026 00:0010,5
05.05.2026 23:0010,5
05.05.2026 22:0011,2
05.05.2026 21:0012,3
05.05.2026 20:0013,3
05.05.2026 19:0013,6
05.05.2026 18:0014,3
05.05.2026 17:0014,4
05.05.2026 16:0017,6
05.05.2026 15:0021,3
05.05.2026 14:0022,8
05.05.2026 13:0022,6
05.05.2026 12:0021,9
05.05.2026 11:0021,1
05.05.2026 10:0019,9
05.05.2026 09:0017,9
05.05.2026 08:0016,6
05.05.2026 07:0013,8
05.05.2026 06:0012,3
05.05.2026 05:0012,2
05.05.2026 04:0012,7
05.05.2026 03:0013,6
05.05.2026 02:0014,4
05.05.2026 01:0014,5
05.05.2026 00:0014,6
04.05.2026 23:0015,3
04.05.2026 22:0016,8
04.05.2026 21:0016,6
04.05.2026 20:0018,6
04.05.2026 19:0020,1
04.05.2026 18:0020,7
04.05.2026 17:0021,4
04.05.2026 16:0022,1
04.05.2026 15:0023,1
04.05.2026 14:0022,9
04.05.2026 13:0022,8
04.05.2026 12:0022,1
04.05.2026 11:0021,4
04.05.2026 10:0020,3
04.05.2026 09:0018,1
04.05.2026 08:0013,0
04.05.2026 07:009,8
04.05.2026 06:007,0
04.05.2026 05:008,1
04.05.2026 04:0010,6
04.05.2026 03:0011,1
04.05.2026 02:0010,3
04.05.2026 01:0011,1
04.05.2026 00:0014,9
03.05.2026 23:0017,3
03.05.2026 22:0015,4
03.05.2026 21:0017,4
03.05.2026 20:0020,1
03.05.2026 19:0022,2
03.05.2026 18:0023,4
03.05.2026 17:0023,4
03.05.2026 16:0024,0
03.05.2026 15:0024,5
03.05.2026 14:0024,2
03.05.2026 13:0023,4
03.05.2026 12:0022,6
03.05.2026 11:0022,2
03.05.2026 10:0020,9
03.05.2026 09:0017,6
03.05.2026 08:0012,2
03.05.2026 07:008,2
03.05.2026 06:005,3
03.05.2026 05:004,1
03.05.2026 04:004,3
03.05.2026 03:004,9
03.05.2026 02:005,7
03.05.2026 01:006,4
03.05.2026 00:007,2
02.05.2026 23:008,5
02.05.2026 22:0010,2
02.05.2026 21:0013,3
02.05.2026 20:0018,9
02.05.2026 19:0023,4
02.05.2026 18:0025,1
02.05.2026 17:0026,0
02.05.2026 16:0026,8
02.05.2026 15:0026,3
02.05.2026 14:0025,5
02.05.2026 13:0024,3
02.05.2026 12:0023,0
02.05.2026 11:0021,7
02.05.2026 10:0019,7
02.05.2026 09:0018,3
02.05.2026 08:0012,6
02.05.2026 07:006,7
02.05.2026 06:001,6
02.05.2026 05:000,6
02.05.2026 04:001,3
02.05.2026 03:001,8
02.05.2026 02:003,0
02.05.2026 01:004,0
02.05.2026 00:005,2
Ihre Auswahl wurde erfolgreich in den Download-Korb gelegt.